Simultaneous Nadir Overpasses (SNOs) Predictions

Prediction of SNOs near equator between AQUA and NPP Satellite Orbit:

Table of predicted SNOs near equator for the next 14.0 days since TLE Epoch: 8/17/2013
Index Date (AQUA) Time (AQUA) AQUA Lat,Lon Date (NPP) Time (NPP) NPP Lat,Lon Distance(km) Time Diff (sec)
1 08/17/2013 07:59:48 29.97, 79.21 08/17/2013 07:49:48 30.35, 78.69 65.76 600
2 08/17/2013 08:41:38 -2.71,-106.89 08/17/2013 08:32:36 -2.62,-107.27 42.92 542
3 08/17/2013 09:29:54 -1.83, 61.69 08/17/2013 09:22:07 -1.98, 61.06 72.35 467
4 08/20/2013 00:09:30 5.49,-159.26 08/19/2013 23:59:42 5.45,-159.47 23.56 588
5 08/20/2013 00:57:36 -0.91, 9.37 08/20/2013 00:49:04 -0.82, 8.90 53.50 512
6 08/20/2013 01:45:52 -3.64, 177.96 08/20/2013 01:38:35 -3.78, 177.23 82.79 437
7 08/22/2013 16:25:27 3.65, -42.98 08/22/2013 16:16:09 3.59, -43.29 34.24 558
8 08/22/2013 17:13:34 0.87, 125.64 08/22/2013 17:05:32 0.98, 125.07 64.22 482
9 08/22/2013 18:01:49 -5.48, -65.76 08/22/2013 17:55:02 -5.63, -66.59 93.17 407
10 08/25/2013 07:54:12 -10.24, -96.13 08/25/2013 07:44:12 -10.27, -96.33 22.13 600
11 08/25/2013 08:41:24 1.84, 73.29 08/25/2013 08:32:36 1.74, 72.89 45.14 528
12 08/25/2013 09:29:31 2.69,-118.09 08/25/2013 09:21:59 2.83,-118.75 74.91 452
13 08/28/2013 00:09:03 -4.52, 20.98 08/27/2013 23:59:31 -4.49, 20.75 26.56 572
14 08/28/2013 00:57:19 -0.02,-170.43 08/28/2013 00:49:02 -0.11,-170.93 56.12 497
15 08/28/2013 01:45:25 4.61, -1.80 08/28/2013 01:38:24 4.74, -2.56 85.64 421
16 08/30/2013 15:43:09 29.97, -36.64 08/30/2013 15:33:09 30.31, -37.10 59.31 600
17 08/30/2013 16:24:59 -2.68, 137.26 08/30/2013 16:15:58 -2.64, 136.93 37.72 541
18 08/30/2013 17:13:14 -1.91, -54.14 08/30/2013 17:05:28 -2.02, -54.73 67.15 466
19 08/30/2013 18:01:21 6.44, 114.48 08/30/2013 17:54:51 6.59, 113.62 96.40 390




NCC Satellite Simultaneous Nadir Overpasses (SNOs) Prediction Service
